Theta_e
314 314 308 304 308 313 314 316 317 317 317 320 321 323 333 343 343 335 327 325 328 335 337 337 341 342 338 335 330 324 324 322 322 325 324 324 325 324 323 322 323 324 322 320 321 323 320 317 320 320 318 321 320 319 322 321 328 337 334 329 331 338 342 332 323 332 336 330 332 334 330 329 328 322 324 332 329 329 338 334 329 335 332 333 338 333 333
314 315 309 304 306 312 315 317 317 317 318 319 322 329 339 344 342 336 328 322 326 334 336 340 351 352 343 333 328 328 326 321 321 323 324 326 327 324 322 322 322 323 324 321 319 322 321 317 318 319 319 320 319 320 326 324 326 333 332 331 329 328 333 334 334 340 342 340 343 337 329 329 327 322 324 327 328 333 334 330 334 335 328 334 341 333 334
313 315 311 304 305 311 315 317 318 318 318 317 321 329 337 340 339 336 332 328 330 340 344 347 350 348 340 333 331 333 327 320 322 323 325 328 330 326 323 322 325 327 326 319 318 325 325 320 318 319 320 319 316 320 326 326 325 329 334 338 334 329 335 345 347 340 335 337 339 333 328 328 326 326 327 325 329 335 331 330 337 332 326 335 340 334 333
312 315 312 305 304 309 315 318 319 318 318 318 320 326 330 337 341 339 336 334 334 341 347 343 338 340 339 331 329 331 327 322 322 323 326 331 333 331 326 325 330 331 325 321 321 323 325 325 321 317 319 320 315 317 321 323 327 333 338 344 347 340 338 346 350 342 337 343 341 333 331 329 323 323 326 324 326 330 331 332 331 328 331 332 330 333 332
312 315 313 306 303 307 314 319 319 319 319 318 320 326 330 333 340 341 336 334 334 335 338 337 335 340 339 330 328 333 329 323 321 322 324 326 330 334 329 329 332 330 329 330 326 322 325 330 328 322 320 318 316 318 320 325 338 344 338 343 358 351 333 334 340 335 337 343 338 330 329 326 323 323 324 326 328 330 332 329 324 329 335 326 321 332 332
312 314 314 308 304 306 313 319 321 320 319 317 320 330 336 335 338 338 331 330 335 333 335 341 337 335 335 330 331 336 329 324 324 322 322 322 330 335 330 330 334 332 335 338 330 327 329 328 327 327 324 320 319 320 319 326 339 341 332 338 358 351 329 325 327 324 329 336 329 327 328 325 326 327 326 329 330 328 326 324 329 338 338 325 321 328 327
311 314 315 310 305 305 312 318 322 322 320 319 322 328 334 337 343 342 331 328 336 337 339 343 336 334 339 335 332 335 331 326 323 323 325 323 330 338 331 328 332 332 339 345 336 330 330 326 324 329 329 324 323 324 323 325 330 333 331 332 342 342 329 327 331 324 323 327 325 326 327 324 325 325 326 330 329 329 327 325 331 338 332 327 328 326 324
310 314 315 312 306 304 310 317 322 325 322 319 323 327 328 331 341 346 341 341 348 343 337 339 336 335 341 338 334 333 333 330 324 324 332 327 325 332 331 328 331 331 339 345 332 329 340 336 322 326 333 326 322 327 327 324 325 329 330 327 331 335 327 330 342 331 321 326 326 324 328 329 327 326 326 329 328 327 328 326 328 331 326 328 332 327 323
310 313 315 313 308 304 307 314 321 327 325 321 328 331 327 327 332 336 340 349 355 343 334 342 343 334 335 339 338 332 330 333 328 322 331 333 326 329 331 331 332 332 336 334 322 327 350 348 327 334 344 328 320 326 324 324 329 329 327 327 332 336 329 334 345 331 322 332 327 322 334 338 329 324 323 327 329 325 324 326 329 329 327 328 329 325 322
309 312 314 314 311 305 305 310 317 325 328 329 335 332 324 325 332 334 337 343 348 340 332 342 344 339 342 345 339 332 328 333 334 326 324 327 326 327 333 335 334 332 330 325 318 322 338 338 330 340 343 325 320 324 320 328 337 333 331 330 332 337 333 332 339 333 327 334 331 330 342 338 328 327 326 325 329 327 322 323 327 328 331 333 329 325 325
309 312 314 315 313 307 304 306 312 321 326 328 331 326 321 323 331 340 343 343 347 343 331 334 341 341 342 339 333 332 328 327 336 336 325 321 324 328 334 339 336 331 325 321 319 320 322 323 322 326 326 319 319 320 317 325 330 332 338 334 331 343 340 330 334 332 323 329 336 334 334 331 331 338 337 331 331 330 324 321 323 327 331 333 330 326 326
308 311 313 315 314 310 306 304 309 317 322 323 324 321 319 322 329 340 347 348 353 347 331 335 346 339 332 333 331 332 329 324 330 334 327 324 326 327 333 340 337 328 320 320 324 322 318 320 320 318 317 317 318 317 317 319 319 325 338 338 334 342 339 331 332 328 324 334 337 328 325 333 341 340 335 335 337 336 331 323 323 327 327 327 327 324 324
307 309 313 314 314 312 308 304 307 314 319 322 323 318 318 322 331 342 347 351 359 352 336 339 349 340 334 337 332 328 327 326 328 333 330 328 327 325 328 336 335 326 320 326 334 330 323 328 331 326 323 325 325 320 318 319 319 322 331 340 342 337 332 333 333 327 327 333 330 326 328 333 336 330 326 329 330 331 332 324 321 325 324 323 326 324 324
307 309 312 314 314 313 311 306 305 311 318 322 323 321 317 320 331 343 345 347 357 352 338 334 337 337 335 334 329 326 326 326 328 329 326 326 326 323 323 325 323 319 320 329 337 333 330 338 342 335 332 333 330 324 321 320 321 322 324 332 344 341 335 335 331 325 329 330 327 332 333 326 326 330 326 323 323 328 335 328 321 326 326 323 325 326 324
307 308 310 313 314 314 312 308 305 309 317 321 323 322 319 319 326 333 336 344 353 350 341 336 337 338 335 332 332 332 329 326 327 327 322 322 324 321 320 321 317 316 320 328 336 336 335 337 331 323 323 326 324 323 324 319 319 324 328 335 342 338 333 335 330 325 334 340 333 331 332 330 333 338 335 330 329 338 343 332 323 327 326 322 324 328 327
307 307 309 312 314 314 313 310 306 307 315 320 321 321 320 321 323 326 332 342 347 342 335 334 341 341 333 329 331 334 335 333 332 329 324 321 321 320 320 320 317 318 325 334 340 339 335 330 322 317 322 327 323 319 320 318 318 321 327 334 338 334 335 343 337 324 328 337 333 327 331 334 335 339 338 331 332 343 345 333 326 328 326 324 327 328 327
308 308 308 311 314 314 313 311 307 307 314 320 322 320 320 321 322 325 332 343 350 349 337 328 337 346 339 330 330 336 342 341 337 336 333 326 321 321 321 320 319 322 328 336 345 342 331 325 322 320 325 330 325 319 319 320 321 322 324 328 332 334 336 338 333 324 325 329 327 326 330 329 332 342 340 329 335 345 337 329 333 335 329 328 329 328 328
309 308 308 309 313 314 314 312 308 307 314 320 323 322 321 322 321 323 333 344 350 348 335 324 332 343 337 334 335 334 335 338 339 339 336 328 323 321 319 320 322 323 322 330 341 340 329 325 325 323 325 330 329 325 322 321 322 328 330 327 327 331 331 329 331 331 329 324 322 326 331 330 331 338 335 328 333 335 328 332 342 339 329 328 329 327 329
309 309 308 308 311 313 314 313 308 307 313 320 322 322 322 322 319 321 333 345 345 335 324 321 328 331 327 333 341 335 333 339 341 338 332 326 326 326 322 322 325 324 326 334 339 334 328 329 330 327 328 334 334 329 324 323 325 328 329 328 328 328 325 325 328 328 327 330 331 329 331 332 331 330 328 325 326 330 335 340 338 330 328 328 325 326 328
310 310 309 308 310 312 313 313 309 307 311 318 321 322 321 319 317 318 329 342 347 338 325 321 324 324 324 332 338 336 338 342 342 341 338 331 330 329 325 326 330 329 331 336 333 326 327 332 332 328 327 330 332 330 329 331 330 325 322 327 332 331 325 324 328 329 328 333 332 327 329 335 332 323 322 326 330 337 344 337 325 324 331 329 325 326 328
310 310 309 308 309 312 313 314 311 307 309 316 320 321 318 316 317 319 323 331 339 337 326 320 321 322 323 327 329 330 335 337 339 345 348 337 330 330 331 335 338 332 331 338 334 325 328 334 332 329 329 329 329 329 329 332 332 324 322 329 332 328 325 327 332 331 328 329 333 338 343 343 332 324 327 336 339 341 341 331 322 323 330 330 328 328 329
311 311 310 309 308 310 313 314 312 307 307 313 319 321 319 316 317 320 324 327 331 330 324 321 321 322 323 323 323 324 327 328 329 337 344 340 333 334 339 343 339 328 332 344 343 331 331 334 331 330 331 329 328 328 327 330 330 326 326 330 331 328 330 335 333 328 328 334 340 344 344 336 329 329 336 340 336 333 335 332 326 325 326 327 328 326 329
312 311 311 309 308 309 312 313 313 309 306 311 317 320 321 319 317 320 325 327 326 322 318 319 320 321 323 323 321 321 324 325 325 327 334 340 338 337 340 342 338 334 339 347 345 336 336 335 331 330 331 328 327 329 328 326 328 329 327 327 328 327 330 336 333 324 327 333 331 329 332 330 325 327 332 333 329 328 330 329 326 325 326 327 326 327 332
312 311 311 310 308 308 311 313 314 311 307 308 313 318 320 317 315 320 325 325 327 325 321 322 327 327 324 322 321 320 322 325 327 325 326 334 341 342 339 334 335 339 340 336 334 336 339 334 329 330 334 334 333 336 331 326 326 330 332 331 330 326 326 329 330 327 330 332 329 329 332 329 326 327 327 325 328 330 330 329 328 327 328 328 326 327 331
312 311 311 311 309 308 310 312 314 313 310 308 311 318 321 315 313 320 325 326 334 339 331 324 327 325 320 320 322 321 321 323 324 325 324 325 333 339 336 328 329 335 332 327 331 338 337 332 330 331 332 332 332 331 330 331 334 332 333 337 336 328 324 326 327 328 329 326 326 328 327 324 328 332 328 324 327 328 328 330 331 328 327 324 320 321 327
312 311 311 311 310 308 309 311 313 313 312 309 310 316 320 315 311 318 323 323 329 335 331 327 328 324 318 319 320 320 322 323 321 324 325 323 325 328 327 324 324 326 326 329 339 345 340 331 329 330 330 329 331 331 328 331 334 327 327 339 339 325 321 326 329 332 333 328 325 329 328 322 324 327 326 327 330 328 326 328 328 327 327 324 319 317 319
311 311 311 312 311 309 309 310 313 314 312 309 310 316 320 316 310 313 320 322 323 324 327 330 329 321 316 318 319 319 321 321 321 324 325 325 326 323 321 326 333 335 333 335 337 340 337 328 324 329 331 327 329 331 327 325 326 323 327 338 334 319 319 330 333 334 337 334 331 333 333 328 325 324 323 325 330 329 325 323 323 325 325 326 324 320 316
311 311 312 312 311 310 309 309 312 314 312 310 314 319 321 316 311 310 314 319 322 329 339 339 328 316 314 315 315 316 319 320 321 324 325 324 326 323 322 328 337 341 341 339 334 332 331 326 323 328 332 330 328 332 332 328 324 326 334 340 331 321 327 340 342 339 339 339 338 339 337 332 327 328 329 329 330 331 326 322 324 327 324 324 328 327 322
311 311 312 312 312 311 309 309 312 313 311 312 318 322 321 319 312 308 309 314 320 329 338 339 328 319 318 318 314 314 316 319 320 323 323 323 324 322 321 325 332 338 338 336 334 332 330 328 327 326 326 329 329 329 330 327 321 325 337 338 332 330 336 342 342 337 332 332 337 340 337 332 328 330 332 326 322 326 329 326 325 325 319 315 320 322 320
311 311 311 312 313 312 310 309 311 312 311 314 320 324 325 323 316 308 308 314 319 324 332 336 329 322 320 319 316 313 315 318 318 319 320 321 321 320 320 322 327 332 334 332 331 330 326 325 327 325 324 327 328 324 323 322 322 331 338 332 327 332 334 334 339 337 327 329 339 341 339 339 334 328 326 320 315 319 326 324 320 319 316 313 314 314 313
311 311 312 312 313 313 310 308 310 312 311 312 320 327 330 327 318 310 309 313 319 325 332 335 330 324 324 324 319 314 315 316 316 317 318 318 319 319 319 321 322 325 330 329 324 322 321 321 323 325 324 326 329 327 323 320 322 331 334 329 328 333 333 331 337 335 327 329 334 330 328 332 329 323 323 323 317 317 322 321 318 317 316 314 314 313 312
311 311 312 312 312 313 311 308 310 312 311 310 315 322 323 318 312 308 309 314 320 325 330 330 322 320 326 328 321 316 317 316 316 319 321 318 318 320 320 322 323 323 327 327 321 318 321 324 323 321 321 325 329 331 326 323 325 331 336 334 331 332 332 332 331 328 327 328 326 319 319 325 326 325 325 322 316 315 319 319 316 316 316 314 314 314 313
310 311 312 312 312 313 311 308 309 312 312 309 310 314 314 311 309 308 309 315 322 324 327 328 324 318 321 325 319 315 318 321 321 324 325 321 320 320 322 328 331 325 320 322 324 322 324 326 323 318 320 326 330 329 326 327 331 334 335 333 329 328 332 332 328 327 329 327 324 323 324 325 325 324 322 318 315 316 317 316 316 317 316 316 317 315 313
310 311 312 312 313 312 310 308 309 312 313 313 314 316 315 312 311 309 309 316 324 324 321 323 325 322 321 324 323 319 323 328 328 328 328 323 320 321 325 330 333 328 319 320 324 322 320 324 324 320 323 327 325 322 325 333 337 335 333 332 329 327 328 327 326 329 330 327 326 328 326 321 319 318 318 319 319 317 314 314 316 319 321 322 320 316 312
310 311 311 312 312 311 309 309 310 312 314 316 318 319 317 314 312 310 310 316 324 326 321 318 322 326 323 323 323 322 323 329 331 331 332 327 320 323 330 330 328 327 324 322 324 322 321 323 324 324 327 328 323 322 329 336 336 332 331 330 329 325 323 321 322 328 330 328 327 325 322 320 321 321 323 327 325 318 315 315 315 319 323 324 319 313 311
310 311 312 312 311 310 310 310 312 314 315 317 319 318 315 313 311 308 309 313 319 326 326 321 321 327 327 327 329 325 320 324 330 330 330 328 322 326 335 334 328 328 327 325 326 326 325 323 323 323 324 324 326 330 334 334 332 329 329 331 332 329 326 325 325 328 331 330 328 326 324 324 325 327 328 330 328 323 321 319 318 319 323 322 318 315 312
309 311 311 311 310 312 314 313 314 315 315 316 317 315 312 312 312 312 315 316 316 320 325 325 325 329 328 329 333 327 317 322 332 330 328 330 329 328 333 333 328 326 326 326 329 331 327 322 321 322 325 327 330 334 333 331 330 329 327 331 335 333 332 333 331 329 329 327 324 325 325 323 323 326 326 326 327 327 325 322 319 319 318 318 318 316 312
309 310 309 309 312 317 319 316 314 316 316 315 315 316 315 314 316 318 320 318 317 320 322 324 329 332 326 324 327 322 316 323 332 330 327 328 326 322 323 326 325 322 321 324 328 327 326 324 322 322 328 332 330 329 329 330 329 327 326 330 334 334 334 334 329 325 325 324 321 322 323 321 323 325 324 324 327 327 321 317 314 313 312 313 313 312 311
308 308 307 309 314 318 318 316 315 317 317 315 315 319 319 315 316 321 319 316 318 322 321 321 328 331 328 325 325 320 317 322 328 328 327 328 326 323 322 322 322 320 318 323 327 323 322 327 325 322 329 335 330 324 325 327 325 325 328 329 327 325 330 334 328 323 324 326 326 325 323 320 322 326 329 330 328 322 315 310 310 310 311 311 310 310 311
307 308 308 310 313 314 314 314 314 315 317 315 314 317 318 315 316 319 318 314 315 319 320 322 326 325 324 326 325 320 317 321 326 330 329 326 326 327 322 319 321 319 316 324 333 329 323 326 324 322 331 340 335 326 326 327 325 326 327 324 317 314 318 324 322 317 315 319 321 319 316 315 317 323 329 333 330 324 317 312 310 311 311 310 310 312 312
306 307 308 309 310 310 312 313 313 313 316 317 315 315 317 317 316 316 315 314 316 318 319 322 321 317 317 323 324 322 320 320 324 331 330 323 323 327 322 317 318 318 317 325 334 331 324 324 325 328 337 343 338 332 329 328 328 330 327 319 313 311 312 315 317 315 315 318 318 315 314 314 314 315 317 318 318 318 315 311 310 311 311 311 312 312 311
303 304 305 306 308 309 311 313 314 315 316 316 315 315 316 317 316 315 314 316 318 318 317 317 317 318 319 319 320 324 323 319 322 331 330 320 320 326 324 318 316 318 322 329 332 325 320 322 326 330 336 339 337 336 332 327 329 336 330 317 312 312 312 312 315 316 317 317 316 315 314 314 314 313 313 313 311 311 311 311 311 312 312 312 312 311 310
303 304 305 307 308 310 312 314 314 315 316 316 316 316 316 315 314 315 316 317 317 317 316 315 315 316 317 317 319 322 319 315 322 330 326 319 319 323 321 318 318 322 329 331 326 320 321 326 328 332 337 337 334 334 335 331 330 331 326 316 312 313 314 314 315 316 316 315 315 315 314 315 314 314 314 313 312 312 312 312 312 312 312 312 312 311 310
304 305 306 307 309 311 314 316 315 315 317 317 315 314 315 315 315 316 318 318 317 316 317 316 315 315 317 321 325 325 319 317 322 324 320 319 321 321 319 321 325 327 326 324 322 323 328 330 328 329 335 336 330 329 334 334 329 326 324 318 313 312 313 314 315 315 315 315 315 314 314 314 315 314 313 313 313 313 312 312 311 312 312 312 311 310 311
305 306 307 309 311 312 314 316 316 316 317 316 314 315 317 317 316 317 319 320 320 319 319 319 318 318 319 322 326 326 323 322 322 320 318 319 319 318 321 327 329 325 320 320 322 324 325 326 327 329 331 329 326 327 333 332 325 323 325 323 318 315 316 317 316 315 315 315 314 314 314 314 314 313 312 313 313 313 312 311 311 311 311 311 311 311 311
305 306 306 308 311 313 314 315 316 316 315 316 317 318 318 317 316 318 319 318 317 319 320 319 318 318 320 322 322 323 324 324 321 320 321 321 319 319 321 323 320 318 318 321 322 322 322 326 331 332 330 328 328 331 334 331 323 320 322 324 323 321 317 313 313 314 315 314 315 314 313 314 313 313 313 312 312 312 312 311 311 311 311 311 311 311 311
305 304 303 305 308 310 312 315 316 317 317 319 319 319 319 318 318 318 318 317 316 318 319 319 318 319 322 324 322 321 322 323 320 319 319 319 318 319 319 317 317 319 320 320 321 324 326 328 328 329 329 330 331 332 332 328 323 321 322 322 324 323 318 313 312 314 314 314 314 313 313 313 313 312 312 312 311 311 312 311 311 311 311 310 310 310 310
304 305 304 305 307 309 311 313 314 316 319 320 318 318 318 318 317 317 317 318 318 317 318 321 322 320 321 324 326 323 321 320 319 318 318 318 317 316 317 318 318 320 321 322 325 328 330 330 330 331 330 327 327 330 330 327 322 322 323 323 324 323 321 318 316 314 313 313 314 313 314 314 313 311 311 311 310 310 311 311 311 311 311 310 310 310 309
302 304 304 304 304 306 308 310 310 313 317 318 316 315 316 317 317 317 317 317 317 317 320 326 329 324 319 321 323 320 317 317 317 315 315 316 315 316 318 319 318 320 325 328 327 326 326 328 329 331 330 328 325 326 326 324 321 321 320 319 318 316 314 313 314 314 313 313 314 314 314 313 311 310 310 310 310 311 311 311 311 312 311 310 310 309 309
301 303 303 303 303 306 308 309 310 313 317 316 315 314 315 315 316 316 315 317 319 319 318 320 324 322 318 319 320 318 318 320 318 315 314 316 317 317 318 319 321 327 332 329 323 322 325 326 325 326 330 331 329 326 323 322 323 321 316 312 312 313 313 314 314 314 314 314 314 314 314 312 311 311 311 311 311 312 312 311 312 312 311 311 310 309 308
302 303 303 303 304 307 309 309 310 312 313 313 313 313 313 315 315 314 313 315 317 316 316 319 323 322 318 319 319 319 319 318 316 316 318 320 319 318 319 320 324 330 331 325 320 320 322 320 319 324 328 329 329 326 321 319 318 316 312 311 313 314 314 314 314 315 315 315 314 314 313 312 311 312 312 311 312 312 311 311 312 312 311 311 310 309 308
301 302 303 303 304 306 306 307 308 308 309 310 311 311 312 314 314 312 311 313 314 316 320 323 322 320 319 320 320 318 317 315 316 319 320 318 318 321 325 326 326 326 326 323 323 324 322 320 321 326 328 328 326 323 318 315 315 312 311 312 313 313 313 314 315 314 315 314 313 312 313 312 312 312 312 311 311 310 310 310 312 311 311 311 310 309 308
Wind_Speed
22 24 26 25 23 22 18 14 9 5 5 5 4 1 1 2 2 2 7 13 10 7 3 3 2 2 4 4 5 4 1 1 1 2 3 3 2 3 2 2 2 2 3 4 4 4 3 2 2 2 1 0 2 3 3 4 3 4 2 2 2 2 4 4 2 3 3 4 6 6 6 6 5 3 2 3 2 2 5 4 3 3 3 2 4 2 4
21 23 25 25 24 22 19 14 10 6 5 4 3 2 1 2 2 1 2 4 4 6 1 2 2 4 4 4 5 3 2 2 2 1 2 2 2 3 2 1 3 1 2 4 3 4 3 1 1 2 1 1 2 3 4 4 3 2 2 1 1 2 2 4 4 3 5 6 7 7 7 4 2 2 4 3 3 4 3 2 4 4 2 3 5 1 5
21 23 25 26 24 22 20 15 9 5 5 4 3 2 0 0 1 2 2 1 3 4 4 4 2 4 4 3 3 3 4 2 3 3 3 2 3 3 1 1 4 3 3 5 5 4 4 2 0 1 1 1 2 3 4 4 4 1 4 3 3 3 2 3 5 3 1 0 2 2 2 2 2 3 4 5 6 5 4 2 4 3 1 3 5 4 3
20 22 24 26 25 23 20 16 10 4 4 3 2 2 1 2 0 2 4 4 3 1 2 4 3 3 1 2 2 3 3 1 2 4 4 2 3 4 2 2 6 6 5 6 5 6 5 3 2 1 1 1 2 2 2 2 3 1 2 2 4 4 2 3 6 6 5 5 5 4 3 2 1 2 5 6 6 6 6 5 4 3 2 4 1 5 3
19 21 24 26 26 23 21 18 11 3 3 4 2 1 2 2 1 2 0 3 2 2 3 2 1 3 3 1 2 1 2 1 4 4 2 2 3 4 4 5 5 3 4 6 4 4 5 5 3 1 1 1 2 3 2 3 3 3 3 4 4 5 3 2 6 5 6 7 5 3 4 5 4 2 4 5 5 7 7 5 4 5 5 3 3 4 6
19 21 23 25 26 24 21 19 12 3 3 5 3 0 1 1 2 3 3 1 1 2 3 3 5 4 2 2 1 1 2 2 2 2 1 2 4 4 3 6 5 2 4 6 2 3 5 5 3 2 2 2 3 5 4 4 5 5 4 4 4 6 1 1 4 2 3 4 3 2 4 4 4 5 6 5 6 8 7 4 5 6 6 4 5 6 7
18 20 22 25 26 24 22 20 14 4 3 5 3 0 1 1 1 3 0 1 4 5 4 5 6 5 3 1 1 1 3 3 2 1 2 3 4 5 4 4 5 6 5 6 3 2 3 1 2 0 1 1 1 2 3 5 4 5 4 3 3 5 0 3 3 3 1 2 1 1 4 3 2 2 4 6 7 7 5 3 4 6 6 6 6 7 6
17 19 21 24 26 25 23 21 16 5 3 4 3 1 1 1 1 2 3 2 2 3 2 5 6 3 2 2 2 3 5 3 3 2 5 3 2 4 6 4 5 7 6 7 4 3 7 5 2 4 3 2 1 2 2 1 3 5 3 2 3 4 1 3 3 4 3 4 3 1 4 6 4 4 3 6 6 5 4 3 4 7 6 5 7 8 3
16 18 20 22 25 25 24 22 18 8 3 3 2 3 2 2 3 1 2 2 4 2 1 5 6 2 1 1 3 2 4 5 3 1 3 6 5 5 8 8 5 5 7 8 3 3 7 7 5 6 7 4 3 3 3 4 2 3 2 1 3 4 0 2 5 4 3 5 2 1 4 8 7 6 3 4 5 4 1 1 4 7 7 6 7 6 3
15 16 18 21 23 25 24 22 21 13 3 3 2 2 4 4 2 1 3 1 4 1 1 4 4 3 3 3 3 3 4 5 4 4 3 3 6 7 9 9 5 5 6 4 2 5 7 7 6 5 5 4 4 4 4 6 5 2 1 2 2 3 3 1 4 3 4 6 1 1 5 7 4 3 2 3 3 3 2 2 2 5 7 6 5 4 6
14 15 17 19 21 24 24 22 22 18 10 6 5 3 5 4 1 2 4 1 4 2 2 2 2 3 4 5 3 2 3 2 6 6 2 3 4 6 8 9 7 4 2 4 6 4 3 4 3 3 3 4 4 5 5 6 4 4 4 3 2 3 5 2 3 4 3 5 3 5 5 2 3 6 5 6 5 6 5 3 1 3 4 5 4 4 4
13 14 16 18 20 22 23 22 21 20 14 9 6 5 7 3 1 1 5 2 3 2 1 2 3 4 4 4 3 1 3 5 7 8 7 3 3 4 6 7 7 2 4 3 1 4 4 3 2 2 2 0 3 5 7 7 3 1 4 6 3 3 4 1 1 4 1 2 6 5 1 5 6 6 2 5 7 8 7 4 1 2 7 8 7 6 6
13 13 14 16 18 20 22 22 20 18 15 8 5 7 11 6 1 2 4 3 2 2 1 4 4 5 4 5 7 3 4 8 9 9 8 5 4 4 3 4 4 4 4 3 6 7 3 3 4 3 5 6 4 3 4 6 4 1 4 5 5 4 4 2 2 2 1 3 4 2 4 6 5 6 3 3 4 5 7 6 5 2 5 9 9 7 7
14 13 13 15 17 19 21 22 20 17 14 8 4 7 12 10 2 1 3 3 2 4 2 1 4 4 6 8 8 4 4 8 8 7 6 4 5 4 2 2 2 3 4 6 6 5 3 2 4 4 5 5 5 3 2 1 2 3 4 4 5 6 4 2 2 2 2 3 2 1 2 4 5 4 1 2 2 3 5 4 3 6 3 6 9 7 6
16 14 13 14 15 17 20 21 21 18 14 8 4 6 12 12 6 1 2 4 0 3 1 2 5 6 8 7 7 6 5 6 6 6 4 3 3 2 0 1 3 4 5 5 4 4 3 3 3 3 3 2 0 2 2 1 2 3 3 4 5 5 3 3 3 1 2 4 2 2 2 2 6 6 5 3 3 6 7 5 1 6 5 5 8 8 7
17 15 13 13 14 16 18 20 21 19 16 10 5 6 11 13 10 4 1 3 3 2 4 5 5 8 7 3 4 7 6 4 5 4 4 3 2 0 2 1 4 5 6 4 3 4 4 3 3 2 2 3 3 2 0 1 1 4 4 5 8 7 3 4 5 2 2 5 3 2 2 4 6 7 7 5 3 7 7 5 2 6 6 5 8 8 7
19 17 14 12 13 14 17 19 20 20 18 13 7 6 10 13 13 8 1 2 4 1 6 7 1 6 5 3 3 3 4 4 4 4 2 1 2 1 3 4 5 4 5 4 3 4 4 2 2 2 2 4 3 2 0 2 2 3 4 4 6 6 4 4 3 1 0 3 2 2 3 4 5 6 7 5 3 8 9 3 5 7 6 5 7 8 7
19 19 16 13 12 13 15 18 19 19 19 15 7 5 10 14 15 10 1 2 4 0 8 8 5 5 2 4 4 2 3 4 3 4 2 1 2 2 1 1 3 3 3 3 2 3 3 1 1 2 3 4 1 3 1 2 3 3 2 2 2 2 2 2 2 2 1 3 1 2 3 4 5 5 6 4 4 8 5 4 7 6 6 5 6 9 7
18 19 18 14 12 12 14 16 18 18 19 17 9 4 7 13 15 12 4 2 4 1 8 8 7 5 1 3 2 1 2 5 4 5 5 1 2 2 1 1 1 1 2 3 3 3 2 1 2 3 1 4 1 3 2 1 3 3 3 4 2 1 1 1 2 2 1 2 2 1 3 4 4 4 4 1 4 1 4 6 4 5 6 4 4 7 6
17 18 19 16 12 11 13 14 17 17 18 18 13 5 5 9 14 13 6 1 3 1 5 6 8 6 4 5 3 1 3 4 3 5 6 4 3 3 5 2 1 1 2 3 2 1 1 1 3 1 2 2 2 2 1 2 3 2 3 3 3 4 3 1 2 3 1 2 3 2 2 5 5 5 0 2 3 5 6 2 1 4 5 4 4 5 5
15 17 19 17 13 11 11 13 16 17 16 17 15 9 5 7 11 12 5 2 4 3 2 5 8 9 9 9 7 6 6 4 3 4 5 3 1 5 4 4 3 1 1 2 2 0 0 1 2 1 1 1 1 2 2 1 4 4 1 3 1 2 3 1 2 2 2 2 1 3 4 6 6 6 3 3 5 6 6 5 3 3 4 4 5 5 6
14 16 18 18 14 11 10 11 14 15 15 16 15 12 8 7 9 11 5 3 4 2 0 2 6 11 13 12 11 10 10 7 4 3 5 2 2 2 4 4 2 2 3 3 4 1 1 1 1 1 1 1 1 1 2 3 1 5 3 3 1 3 4 4 3 2 3 4 6 6 4 5 5 5 5 6 5 4 6 7 5 3 4 4 5 6 6
14 15 17 18 16 12 10 10 12 13 15 15 15 14 13 13 13 10 3 2 1 1 3 4 6 8 10 10 10 10 9 10 9 6 5 5 3 2 1 3 3 1 1 3 4 3 2 2 2 2 1 1 1 2 2 2 0 3 2 1 2 4 3 4 3 0 0 1 3 3 2 3 3 2 2 4 5 4 4 6 5 4 6 6 6 7 7
14 15 16 18 17 13 9 9 10 12 13 13 13 13 13 15 18 13 5 3 3 2 5 7 4 3 2 5 9 9 9 9 9 8 7 6 4 1 2 1 2 2 1 1 3 4 3 1 1 3 1 2 2 3 1 1 1 1 1 2 4 3 1 3 2 1 2 1 4 5 5 4 2 2 2 1 2 3 4 5 5 5 6 7 7 7 7
14 15 15 16 18 15 11 9 9 10 12 11 11 11 11 15 18 13 5 3 3 4 2 3 2 1 3 6 9 9 8 7 7 8 9 7 7 7 4 2 3 5 4 3 3 5 4 1 2 3 1 2 0 1 2 1 1 1 2 1 3 2 1 1 0 1 2 2 4 5 4 3 0 4 4 3 3 3 2 3 5 5 6 6 8 8 7
15 14 14 16 17 16 12 9 8 9 10 10 10 10 10 14 17 11 4 2 2 4 4 1 4 2 3 6 7 7 7 6 5 8 11 12 13 15 12 6 5 6 5 4 4 5 4 2 2 3 2 1 1 2 2 2 1 0 1 4 4 1 1 0 1 1 2 2 3 4 5 6 5 2 3 4 5 5 4 3 4 5 5 6 7 7 6
15 14 15 16 17 17 14 10 8 8 8 8 9 6 6 11 14 12 7 5 2 2 2 1 3 3 2 5 4 4 5 4 3 6 12 14 14 15 14 10 6 5 5 5 3 3 4 3 1 2 3 2 1 2 1 2 1 2 1 4 2 1 1 1 3 2 1 3 3 1 3 1 3 2 3 5 5 6 6 3 2 2 3 4 4 3 4
14 15 15 16 17 18 15 11 8 8 8 7 6 3 5 9 11 9 7 6 3 3 4 3 2 3 2 2 2 4 4 2 2 7 13 12 11 11 11 9 5 4 4 4 2 3 4 2 2 2 2 1 1 1 2 2 3 1 3 4 2 3 4 4 5 4 5 7 6 4 5 4 5 5 4 5 4 6 5 3 2 1 2 3 5 7 7
14 15 15 15 17 18 16 12 9 8 8 6 2 4 3 6 8 8 7 5 3 2 3 2 2 2 0 0 1 4 6 3 2 7 12 11 9 10 10 8 5 4 4 4 4 3 2 3 3 1 1 2 2 1 2 2 1 3 5 6 5 4 5 6 7 5 3 5 6 5 5 4 6 6 5 6 4 5 5 3 4 3 4 7 8 8 10
14 15 14 14 16 17 17 13 9 8 8 5 1 2 2 3 6 9 9 6 4 2 3 4 1 1 2 2 2 2 4 5 2 4 7 9 8 8 9 7 4 4 4 4 3 3 2 1 1 2 2 2 4 2 1 2 2 5 6 5 4 2 4 6 7 5 3 5 6 6 6 5 6 4 2 3 5 7 6 5 7 8 10 13 12 10 13
13 14 13 14 15 17 17 14 9 7 7 5 2 3 2 0 4 8 9 7 5 2 4 4 1 2 3 3 2 1 4 6 4 2 3 5 5 5 6 5 3 3 4 3 2 2 2 1 1 1 2 2 5 3 2 3 1 5 6 5 5 4 4 5 5 5 6 6 4 3 2 2 3 0 2 3 5 8 6 5 9 11 13 15 16 15 17
12 13 13 13 15 16 17 14 9 6 5 4 2 0 2 1 3 8 9 8 5 2 4 4 2 1 1 3 4 1 4 6 3 3 3 2 2 3 3 4 3 2 4 4 2 0 2 2 2 1 1 1 4 3 2 4 3 6 6 5 5 5 5 6 5 5 6 7 5 3 1 3 3 3 4 5 6 8 8 6 9 10 12 13 13 14 16
12 13 13 13 15 16 17 13 9 6 5 4 3 2 0 1 3 7 9 7 3 2 3 4 2 1 1 2 4 1 3 3 2 3 2 2 1 3 3 3 3 3 3 3 2 2 1 2 3 1 2 1 4 3 1 3 6 7 7 6 6 5 4 6 6 5 5 6 6 5 5 5 5 6 8 7 7 9 8 6 5 5 8 10 10 10 12
12 12 12 13 14 16 16 12 7 6 5 3 1 1 2 3 3 6 8 6 2 2 3 4 3 1 2 1 3 2 3 3 2 2 0 2 1 3 1 3 4 3 1 0 1 0 1 1 3 2 2 1 2 2 3 5 7 7 6 6 6 4 3 4 5 5 6 6 5 4 7 8 7 7 6 5 6 7 5 5 6 5 5 7 7 9 11
12 11 11 12 14 15 14 9 5 4 3 2 1 1 2 2 2 4 6 5 3 2 2 1 3 2 1 2 3 4 2 4 2 2 2 2 2 2 2 2 3 1 2 1 1 1 1 1 3 2 2 1 1 2 4 6 7 6 6 6 5 2 4 4 5 5 5 6 5 4 5 7 7 6 5 4 5 6 5 5 6 6 6 6 7 9 11
11 10 10 11 13 13 9 5 3 3 2 1 1 2 1 1 1 1 2 3 2 2 1 1 2 2 4 3 3 4 2 3 1 0 2 0 1 2 3 3 1 2 1 2 2 1 2 1 2 1 2 2 3 5 7 7 6 7 7 7 6 4 6 7 7 4 3 5 7 7 6 7 7 6 5 4 5 6 5 4 4 6 8 8 7 7 9
8 8 9 11 10 7 5 3 3 3 2 0 1 2 2 2 1 1 2 1 1 1 2 3 1 3 4 3 3 2 2 2 1 2 2 1 1 1 3 3 2 2 1 3 0 3 2 1 2 2 3 4 5 7 7 7 7 7 7 7 6 6 6 7 7 6 5 5 6 6 6 6 6 4 3 4 5 5 5 5 6 8 10 9 8 8 10
6 6 8 7 5 2 1 2 2 4 4 3 2 1 2 0 2 2 2 1 0 1 1 3 2 3 1 1 2 2 3 3 1 2 0 2 1 1 1 1 2 1 0 1 4 3 2 2 1 3 4 6 5 6 8 8 8 7 7 7 6 6 6 6 7 9 7 4 4 4 5 5 6 5 4 5 6 5 5 7 9 13 15 13 12 13 15
5 5 5 3 1 1 2 4 3 4 6 4 2 1 1 2 2 1 2 1 1 1 0 2 3 3 3 2 3 3 2 3 3 2 1 1 1 1 1 1 1 1 1 2 4 1 1 2 2 1 4 6 5 7 8 7 6 7 7 7 7 6 6 7 8 9 9 8 8 8 7 7 6 6 5 4 4 3 4 6 9 13 15 15 15 17 17
3 4 3 1 2 5 6 5 3 3 3 1 2 1 1 1 1 1 1 0 1 2 2 3 3 3 4 5 3 3 2 3 4 4 3 2 2 2 2 1 1 1 2 3 3 1 2 1 1 1 4 5 5 7 7 5 6 7 7 7 7 8 9 8 8 10 9 7 7 9 10 9 8 7 5 4 3 4 5 6 8 11 14 15 16 16 16
4 4 3 4 8 11 10 5 1 1 1 1 1 1 1 1 2 1 1 2 2 3 2 2 2 2 3 4 4 3 3 2 3 3 3 1 0 2 3 1 1 2 1 4 3 2 3 1 1 3 5 6 6 6 6 5 6 7 5 7 9 10 12 10 9 10 9 6 5 8 9 9 9 9 9 8 8 8 9 11 12 13 15 16 16 16 17
8 8 9 11 13 12 8 3 0 0 1 1 0 0 1 2 2 1 1 2 3 3 2 2 4 4 4 5 4 3 2 1 1 3 3 1 1 2 3 1 1 2 2 5 1 3 2 1 2 4 6 6 6 6 5 5 6 6 6 8 10 12 12 9 8 9 9 7 6 6 6 6 8 11 14 14 14 14 15 17 18 17 16 17 18 19 20
12 11 10 9 7 4 2 1 1 1 1 1 1 2 2 2 2 1 2 2 2 2 2 2 2 3 2 3 2 1 1 1 2 3 2 1 0 2 3 2 1 2 3 2 3 3 2 3 4 6 6 6 6 6 6 6 6 5 7 9 11 15 15 12 11 10 9 7 5 3 2 2 5 12 18 20 19 17 16 19 20 19 17 18 21 21 19
9 7 4 3 2 1 1 1 1 2 2 3 3 4 4 4 3 3 3 2 2 3 3 3 3 4 3 2 1 1 0 0 1 2 1 0 1 2 2 1 3 3 1 1 2 1 3 4 5 6 5 4 5 6 5 5 5 6 6 7 10 14 14 13 11 10 8 6 5 4 2 2 5 13 20 22 22 20 18 17 19 20 19 21 22 20 18
3 1 0 1 2 2 2 2 1 2 4 4 4 4 5 5 5 4 4 3 3 4 4 4 5 6 4 2 1 1 1 1 1 1 1 1 2 1 2 3 2 1 1 0 1 2 3 4 5 5 5 6 7 6 5 5 7 7 7 6 7 9 10 10 8 8 7 7 7 6 4 4 7 15 19 20 23 25 22 19 19 21 22 22 21 18 16
2 0 1 1 3 2 2 2 3 3 3 4 4 4 4 5 5 4 4 3 3 4 5 5 5 5 4 2 1 1 1 2 2 1 1 3 2 2 3 2 1 2 1 1 3 4 5 6 5 5 6 7 7 6 5 6 6 7 8 8 8 8 9 9 8 8 10 10 10 9 8 8 10 16 18 18 20 24 24 22 23 24 24 22 20 18 17
2 1 2 1 3 2 2 3 4 3 3 3 4 5 5 5 4 4 3 3 4 4 4 3 3 3 3 2 2 1 0 2 2 1 1 3 2 2 1 1 1 2 2 4 5 5 6 6 5 5 7 7 6 5 5 5 6 7 8 9 8 8 8 8 8 9 12 13 12 10 10 9 11 16 19 18 19 22 25 26 26 25 24 23 20 19 18
1 2 2 2 2 2 3 3 2 2 2 3 4 5 4 5 4 5 4 3 3 5 4 3 3 2 2 0 2 2 1 1 1 2 1 2 2 0 1 1 2 3 3 5 6 5 5 5 5 6 7 6 5 6 6 5 7 8 8 8 8 8 8 8 9 11 13 13 12 10 10 10 15 20 21 20 19 21 24 25 23 21 21 20 18 18 19
3 1 2 2 2 3 4 3 4 4 4 3 4 5 5 4 4 5 4 2 2 4 4 4 4 3 3 1 2 2 1 1 2 2 1 2 2 2 2 3 4 4 3 5 5 5 5 6 5 5 6 6 5 6 6 6 7 8 9 9 10 11 11 11 11 13 15 14 11 11 11 14 19 21 21 21 21 21 21 21 20 18 17 17 17 19 20
3 2 2 3 3 3 3 2 2 4 4 2 2 4 5 5 5 5 3 2 2 2 2 2 2 2 2 1 2 1 2 3 2 2 2 3 3 3 3 4 5 5 5 5 5 5 5 5 4 5 6 7 6 6 7 7 7 7 9 12 13 14 13 12 12 13 13 12 12 12 14 18 22 23 23 23 23 22 21 20 19 17 16 17 18 20 21
3 3 2 3 4 3 2 2 2 4 4 3 2 2 2 3 4 3 3 2 1 2 2 3 2 2 2 2 2 3 3 2 2 3 3 3 3 4 4 5 6 5 5 5 5 5 5 5 5 5 6 6 6 6 7 8 8 9 11 14 15 14 13 11 11 11 11 12 14 16 17 19 22 24 24 24 24 21 19 18 17 16 16 18 19 20 20
3 3 2 2 3 4 3 3 3 4 4 3 3 3 3 1 1 5 8 4 2 4 4 3 3 3 2 3 3 2 2 1 2 4 4 4 3 4 5 6 5 5 5 5 5 5 5 5 5 6 6 6 7 7 7 7 8 10 13 15 15 14 13 12 12 11 10 10 14 17 17 17 19 21 21 21 20 17 15 15 17 16 16 18 19 19 18
Wind_Direction
7 8 9 8 10 11 9 13 22 57 118 135 135 116 41 116 230 277 146 161 154 98 42 303 335 274 243 256 268 260 257 96 87 5 29 54 44 41 43 55 72 80 93 92 94 100 81 46 108 155 197 202 252 293 17 66 72 70 66 304 337 66 77 77 42 321 311 333 360 19 23 47 70 25 18 87 64 102 139 154 145 74 28 71 84 65 266
6 7 8 8 11 11 11 13 17 46 100 125 124 126 195 197 246 275 156 177 134 104 156 250 287 283 291 302 288 301 23 81 123 88 50 60 62 57 20 28 67 70 93 90 111 126 100 52 132 144 139 280 310 5 55 78 78 80 163 178 64 65 86 88 70 5 348 348 351 358 1 20 71 355 359 45 56 71 84 82 85 62 29 127 113 145 250
6 7 8 8 11 12 11 11 11 43 92 113 121 128 161 23 316 304 307 339 94 131 186 160 174 284 322 315 291 11 30 60 106 94 81 80 93 95 320 23 67 47 52 64 60 81 102 130 254 45 88 279 323 26 66 88 89 165 207 176 89 98 124 109 113 123 136 219 294 296 311 332 350 347 6 33 45 59 81 77 66 65 37 85 112 168 237
5 6 8 8 10 12 11 9 7 39 107 121 124 116 88 77 350 309 329 358 57 153 214 120 130 266 309 327 322 63 75 15 39 62 69 62 83 83 343 11 54 39 54 75 50 43 72 101 99 64 74 322 302 320 22 70 96 159 190 110 78 84 69 95 129 151 175 183 216 221 160 104 51 2 27 45 54 65 91 95 87 133 113 46 130 172 108
6 6 8 8 9 12 12 8 5 27 129 146 159 91 72 103 190 196 289 343 355 310 311 82 161 231 156 148 292 95 119 4 5 28 65 97 79 66 15 26 51 41 69 83 51 25 47 57 59 51 37 11 321 327 355 24 39 59 57 50 76 86 43 78 128 158 195 189 207 219 123 128 172 160 72 70 73 71 79 99 135 140 99 49 249 158 106
6 6 8 8 9 12 13 10 6 17 139 159 171 8 53 140 223 205 168 156 227 234 250 206 208 232 190 159 289 16 89 98 69 10 3 53 68 79 33 22 47 101 110 103 76 18 36 31 21 26 28 34 9 355 344 349 20 49 39 17 86 104 88 183 131 135 225 204 192 120 111 136 166 152 136 122 108 100 100 131 163 139 120 174 201 131 126
7 7 8 9 9 11 14 13 9 15 148 162 161 207 279 129 295 278 284 113 200 206 200 168 175 206 199 119 9 148 138 144 179 165 52 10 23 90 95 20 44 67 81 103 105 87 95 43 307 197 63 58 96 30 332 323 3 56 55 8 87 101 242 240 118 85 319 273 267 96 106 121 96 106 147 141 129 124 116 130 146 112 116 160 156 125 148
7 7 8 9 10 11 14 16 14 20 148 161 145 122 36 99 192 303 357 356 247 222 158 122 134 173 136 93 285 204 153 173 216 154 115 115 8 78 112 121 88 71 70 87 92 175 167 157 177 158 119 68 143 165 199 253 3 39 52 4 56 83 223 240 93 75 328 312 314 24 83 106 85 36 80 114 105 93 84 103 110 91 97 136 125 121 175
7 8 8 9 12 12 15 18 18 24 144 168 112 82 13 286 228 186 69 320 306 313 102 110 121 145 100 138 246 211 169 190 188 111 122 147 149 136 137 131 97 59 63 75 65 225 174 162 177 169 151 141 154 168 168 152 107 20 28 23 42 71 144 321 64 81 287 288 268 309 55 80 62 21 39 100 98 100 118 155 138 129 135 132 107 117 203
6 8 8 9 12 14 15 18 20 27 83 152 95 47 351 328 275 112 112 237 300 318 93 79 106 176 198 193 211 198 206 204 135 81 12 85 124 140 141 128 101 69 65 77 205 207 180 184 200 185 171 164 139 130 145 142 141 161 124 56 44 94 101 36 80 111 274 284 238 42 38 53 25 315 207 148 112 117 110 51 112 143 143 137 137 173 211
6 8 8 9 11 14 17 19 20 27 44 74 88 57 356 1 331 18 74 95 298 313 101 75 120 182 200 197 202 187 175 136 107 115 72 35 86 113 117 112 102 104 148 215 217 201 188 202 189 160 170 174 145 123 113 107 119 155 139 95 37 76 98 128 126 118 274 300 40 57 38 52 247 249 205 169 151 137 122 93 147 167 141 134 146 160 172
5 7 7 8 11 13 16 20 21 24 34 54 80 55 12 5 201 78 86 124 286 326 69 230 198 179 198 182 140 145 152 116 104 121 121 89 70 85 97 103 103 149 226 234 12 30 9 342 10 18 333 302 148 129 113 109 114 146 123 121 114 68 80 119 93 95 150 344 48 61 283 233 244 280 275 155 143 134 120 77 15 142 121 114 117 131 152
3 6 7 7 10 12 13 18 21 23 28 40 62 40 21 16 168 136 103 122 267 285 243 267 237 189 171 107 90 99 132 113 102 105 107 102 86 75 78 107 128 198 202 98 53 52 46 352 358 342 330 352 25 66 111 140 157 79 69 100 124 119 102 92 67 87 82 34 64 134 238 256 286 323 341 127 109 95 89 52 347 293 134 129 138 158 176
3 4 6 5 8 11 11 14 19 22 26 33 36 32 27 26 46 145 109 104 261 256 201 267 254 181 129 100 96 103 95 91 88 82 85 101 99 85 78 112 146 178 130 89 53 52 80 36 23 6 339 3 21 349 303 207 148 109 93 89 111 123 116 82 65 95 104 89 99 241 308 314 311 319 290 182 166 149 128 105 299 278 236 152 144 160 185
6 3 5 4 6 9 9 11 16 19 23 26 25 34 30 26 24 359 130 115 150 302 359 195 203 152 125 122 118 109 86 81 88 82 74 93 96 87 199 97 76 79 84 81 65 58 70 76 59 23 344 8 26 268 278 314 10 50 101 105 91 97 120 132 117 72 86 98 81 11 17 300 258 247 260 264 178 160 137 112 317 286 265 171 139 150 174
9 4 4 3 4 7 8 9 13 17 21 24 32 42 34 27 20 5 173 124 100 22 312 264 199 133 117 127 118 115 125 125 114 92 45 40 79 111 270 10 46 62 72 67 73 80 73 82 113 140 212 208 199 216 231 148 4 350 16 65 66 53 59 101 97 44 65 100 112 172 195 245 241 234 261 276 167 132 95 70 324 277 255 182 140 147 166
10 6 3 3 2 5 7 8 10 15 18 18 26 38 37 30 18 6 342 116 95 160 286 297 127 108 89 80 100 124 147 138 115 111 112 190 156 64 346 354 14 50 84 74 42 58 74 90 101 91 255 234 172 148 199 131 133 303 328 32 46 31 23 56 72 322 124 107 121 216 223 242 238 235 254 250 145 93 74 49 267 253 237 199 148 150 168
8 6 3 2 1 2 7 8 9 14 16 17 21 38 40 33 18 9 23 120 79 224 293 323 62 102 128 154 159 175 152 135 108 101 112 202 183 142 137 21 14 21 70 89 79 73 77 95 132 125 243 269 113 124 185 138 153 231 235 92 54 3 17 66 127 191 154 117 145 268 260 237 227 231 234 213 88 67 85 213 236 216 213 214 162 157 171
3 4 2 1 359 360 6 8 9 12 15 18 21 36 40 31 20 18 34 110 94 133 294 332 56 87 97 130 120 3 108 124 115 105 104 133 234 186 112 68 52 16 39 74 95 107 98 273 244 133 161 294 334 121 163 194 196 193 130 114 159 200 28 43 145 176 178 135 133 289 279 243 198 202 228 129 81 94 216 222 219 183 194 210 173 170 174
358 2 1 360 357 357 3 8 9 10 14 17 16 12 27 27 20 19 26 130 111 91 301 349 54 71 56 73 87 59 76 81 86 121 136 186 218 83 57 360 303 34 49 68 86 103 105 252 277 86 110 277 285 105 77 300 276 206 140 157 187 162 154 236 221 191 143 67 78 84 261 239 184 164 225 55 129 205 215 192 173 186 181 168 161 185 181
354 359 0 359 355 354 359 6 9 10 11 15 15 8 8 22 18 10 359 180 128 81 343 16 56 73 77 77 86 101 109 121 159 155 151 187 188 97 126 210 218 136 141 141 133 207 173 181 286 353 75 294 345 82 102 341 322 312 149 129 122 133 143 188 232 195 124 96 190 200 215 222 184 155 176 211 201 194 166 142 155 194 180 158 158 188 196
351 356 359 358 354 352 355 2 9 11 9 11 16 14 7 7 11 8 351 215 169 137 313 15 70 85 85 77 69 75 90 100 100 122 135 121 24 94 148 157 121 141 180 130 105 81 349 76 91 68 45 327 7 53 104 102 344 307 335 69 111 223 190 165 177 191 158 174 219 230 227 225 199 173 190 206 204 189 155 143 143 168 181 168 153 174 202
347 352 356 358 355 351 350 356 7 12 9 10 14 12 7 6 7 12 27 180 180 41 21 38 81 89 78 74 73 70 74 71 58 57 96 103 59 9 107 115 107 121 111 109 135 156 145 137 132 103 96 260 78 54 26 55 189 275 321 30 243 232 188 138 127 97 124 184 253 273 267 241 219 195 209 192 187 198 163 133 134 164 170 158 154 170 191
343 348 352 357 356 351 345 349 2 10 9 12 14 8 7 13 11 9 24 61 62 56 22 22 61 113 101 98 93 76 65 65 59 51 66 98 116 42 328 225 138 86 43 148 152 127 113 143 113 86 120 232 126 99 75 342 239 209 60 346 298 290 88 97 85 52 69 14 315 317 305 271 202 104 48 57 153 195 176 146 154 172 164 161 168 168 169
337 341 347 355 357 353 345 341 353 5 6 10 14 11 13 18 14 13 25 38 62 116 89 353 337 143 122 111 98 81 71 64 57 59 67 88 120 132 151 186 116 116 148 164 98 81 79 78 82 88 161 240 115 121 169 191 219 180 118 268 277 295 38 47 51 99 127 225 286 316 331 318 171 130 132 135 140 160 169 153 162 168 163 168 173 165 158
330 337 345 354 356 353 347 337 340 356 2 7 11 12 17 18 15 19 45 55 56 97 101 197 265 290 89 105 96 85 87 78 57 73 88 99 114 127 135 126 85 94 109 84 72 96 106 89 90 117 176 234 149 144 176 191 199 142 200 230 222 168 73 299 114 59 353 300 302 351 25 14 358 26 143 172 162 139 126 136 155 156 155 163 174 177 173
325 333 345 352 353 352 348 337 333 342 354 5 9 13 29 29 22 20 29 41 54 80 90 197 262 312 54 114 114 98 103 95 66 89 104 110 115 121 121 112 90 79 73 55 47 84 89 76 105 162 200 232 91 110 193 215 108 88 257 262 247 136 198 176 96 73 302 248 234 212 97 108 282 270 196 203 179 134 125 145 159 154 175 174 152 104 70
316 325 339 346 349 351 347 337 331 333 342 360 20 57 63 40 28 17 11 22 66 147 166 192 263 331 40 95 100 109 124 122 85 115 122 118 112 111 108 101 94 85 79 80 79 74 85 122 188 207 213 190 64 347 316 8 39 36 263 261 235 185 196 171 136 164 224 226 218 190 139 167 230 234 226 236 204 134 134 179 187 188 219 178 122 95 78
307 316 328 336 343 349 347 339 328 326 338 357 55 123 93 43 32 24 13 9 33 119 126 80 348 329 195 225 53 105 127 138 87 116 129 126 113 111 106 92 92 113 107 101 110 112 143 192 201 223 219 131 124 282 333 43 45 254 251 247 235 194 170 158 151 161 214 227 210 179 147 176 222 222 226 241 209 141 134 167 164 138 123 117 114 123 125
303 310 317 327 337 344 345 339 325 322 339 352 72 106 53 20 21 22 18 10 8 65 108 98 88 288 304 312 332 76 131 152 115 90 122 129 125 126 123 107 91 97 90 78 98 131 178 251 310 301 295 92 107 131 195 133 211 260 259 249 244 205 167 172 164 151 173 208 201 176 162 191 219 220 263 266 192 155 145 162 160 138 125 124 123 129 133
301 306 312 322 331 337 340 336 320 317 338 350 42 78 76 304 1 16 18 10 5 42 100 99 105 304 336 337 296 210 162 164 155 66 87 115 123 135 135 119 75 66 88 86 74 126 168 186 57 345 311 83 105 128 153 136 209 277 271 252 245 230 210 210 197 171 173 181 167 128 143 219 241 253 352 301 207 161 142 165 168 148 137 141 144 146 143
298 300 307 316 324 330 335 331 314 303 325 338 330 249 180 212 356 14 17 11 8 64 100 82 55 12 331 308 296 267 152 152 134 60 39 53 73 76 81 80 65 69 101 105 87 124 196 173 133 145 250 118 103 104 122 134 186 245 252 255 264 256 224 209 206 194 178 159 126 95 349 299 285 207 203 225 204 165 150 177 185 159 138 136 140 145 145
296 295 303 311 318 325 329 326 306 284 296 314 294 261 217 60 23 15 13 10 12 71 98 100 102 188 237 280 300 307 126 115 63 47 20 342 64 82 40 27 42 51 66 93 144 218 219 120 115 151 286 40 92 103 175 202 219 235 242 251 264 268 247 212 195 189 191 176 149 148 192 219 218 196 188 188 193 191 183 180 185 161 125 115 119 137 143
297 295 301 307 315 322 324 320 300 272 282 308 281 177 83 48 27 19 11 5 17 34 39 89 112 255 301 347 316 278 140 115 88 107 200 300 359 108 69 354 24 45 18 13 136 197 319 66 128 168 281 342 86 117 239 250 248 246 251 260 261 261 261 241 213 195 198 195 175 174 185 177 162 162 169 173 198 215 200 153 152 161 122 107 127 151 148
296 294 298 306 314 320 320 315 293 266 275 302 269 164 87 26 7 24 9 1 40 57 340 70 112 137 91 46 304 271 145 117 142 168 173 272 340 84 107 47 31 38 229 225 76 70 269 201 155 174 256 277 143 214 236 242 250 253 259 270 263 196 160 199 222 223 210 188 175 178 175 157 152 168 191 200 208 214 196 152 150 155 134 125 148 157 147
293 294 301 308 314 317 314 304 272 258 271 295 219 176 87 355 327 359 347 351 69 133 193 68 90 150 148 151 252 254 138 126 230 224 106 131 328 33 77 87 87 254 259 58 63 236 239 188 141 181 260 218 203 227 222 207 218 238 246 251 244 197 174 188 196 194 172 153 157 165 166 164 175 191 198 210 232 227 196 151 114 114 128 144 158 154 145
288 292 300 306 315 317 308 288 250 227 221 235 219 218 244 279 296 316 323 352 91 149 120 109 165 210 169 166 243 245 143 171 249 20 45 169 202 9 54 90 169 249 350 42 242 223 210 116 120 165 227 224 220 232 225 199 202 222 233 237 231 208 196 191 166 136 112 120 143 157 162 172 195 211 193 206 243 241 195 166 145 137 144 154 163 159 153
277 281 294 308 331 360 295 289 261 209 215 271 318 293 267 342 57 357 330 24 79 318 61 112 212 243 149 134 238 204 173 184 114 64 124 202 148 52 38 117 184 215 57 282 253 218 115 42 96 186 238 262 254 239 230 214 211 219 219 220 220 202 186 175 150 132 122 126 163 178 171 181 216 241 230 222 243 245 214 195 177 162 158 163 165 157 151
263 280 293 298 277 225 275 307 290 222 222 259 327 7 339 26 59 340 296 348 41 301 268 174 218 213 146 150 252 245 180 134 103 112 200 201 138 133 159 193 238 85 88 273 273 243 88 323 309 219 259 281 273 247 234 218 215 225 220 214 219 205 176 167 167 164 164 174 189 191 183 184 206 230 234 231 238 226 198 188 177 167 161 159 155 151 149
264 288 294 257 249 276 296 310 290 228 224 293 11 51 48 29 85 200 223 45 16 262 220 188 211 211 156 150 202 251 214 142 146 166 183 187 172 141 118 171 246 106 115 259 276 81 111 260 293 255 259 259 248 247 245 230 228 238 223 204 201 183 156 151 173 184 182 181 180 180 184 189 191 197 204 199 168 144 144 149 157 156 150 146 149 151 151
336 322 307 304 299 298 302 308 275 214 77 48 30 38 79 237 254 228 140 147 223 254 235 150 150 220 199 156 160 214 232 188 151 132 128 160 182 93 104 211 260 88 158 245 257 82 89 110 255 251 246 237 235 245 252 254 257 254 225 193 183 162 140 132 145 157 156 155 168 176 181 183 180 179 180 172 153 142 136 132 136 141 138 138 146 149 144
311 308 308 311 305 298 299 307 268 128 65 76 65 291 228 225 236 199 151 186 209 233 238 168 163 192 199 168 158 196 229 202 95 80 98 174 228 104 117 174 22 73 220 242 251 74 84 225 253 253 249 247 248 245 238 245 252 238 204 186 173 157 143 133 136 144 147 154 172 179 174 167 164 164 162 155 147 144 142 140 143 146 143 143 148 147 141
286 288 297 304 300 285 271 254 205 133 84 107 181 197 212 229 222 185 203 237 223 190 207 212 186 180 177 154 147 202 249 154 100 82 103 166 219 81 86 76 83 190 229 253 66 89 182 212 227 242 248 251 250 242 237 244 240 209 190 183 170 160 155 151 146 145 147 149 154 163 185 204 179 163 157 150 142 141 145 147 148 147 147 149 150 146 140
294 289 286 284 275 234 212 225 185 162 191 207 190 179 191 207 200 180 191 223 220 194 201 194 161 167 198 199 129 97 247 137 81 79 105 142 58 78 102 193 221 220 237 36 73 192 226 226 233 243 249 251 250 245 238 226 201 179 182 189 175 163 158 155 150 149 154 160 162 161 192 232 178 159 156 151 145 143 148 149 145 142 143 147 147 143 139
299 300 322 252 243 203 179 184 180 185 204 209 197 183 186 190 186 183 199 214 198 180 191 183 153 158 196 225 110 121 173 108 78 121 153 100 64 102 192 217 225 110 80 124 237 250 256 253 253 253 245 240 247 247 227 202 189 172 165 177 182 169 158 156 159 163 173 188 196 199 213 214 169 157 157 157 152 150 149 147 142 139 139 140 141 141 143
240 132 71 246 241 211 170 182 197 201 204 202 192 180 172 172 184 196 210 214 192 177 185 185 158 152 178 201 142 133 136 101 117 194 143 101 122 224 219 184 121 78 83 217 235 240 241 243 247 243 231 232 244 249 227 201 191 175 161 168 185 183 170 167 173 180 187 197 204 210 223 221 186 166 163 163 157 152 148 145 144 142 141 141 144 147 150
243 91 77 255 261 255 218 207 207 208 204 184 175 176 171 169 191 214 220 205 191 180 174 159 138 151 183 177 139 158 137 92 122 216 122 101 146 252 355 83 167 184 176 200 222 234 241 241 236 233 236 239 244 245 231 205 190 183 174 170 177 182 178 174 178 186 195 199 202 211 224 218 181 162 158 157 157 154 150 147 147 145 143 144 148 151 152
243 129 141 222 263 254 240 252 291 287 238 184 168 178 175 162 182 221 236 216 174 163 160 144 132 163 222 193 112 147 210 91 139 206 181 109 139 195 52 86 233 228 187 197 215 227 236 236 225 223 234 238 227 221 221 209 193 185 176 169 173 181 181 181 186 195 199 197 200 214 221 193 163 154 152 152 156 157 154 151 150 148 144 143 145 148 149
274 189 167 215 264 259 259 295 335 319 277 222 177 176 177 175 200 229 245 250 201 177 173 160 145 169 220 244 95 123 200 208 164 185 177 129 152 174 159 182 217 232 228 221 220 222 233 236 229 230 245 251 238 221 211 199 188 178 168 167 173 177 176 180 190 199 200 198 204 216 205 173 157 153 152 152 157 161 161 158 158 156 152 151 152 153 152
260 232 189 200 232 259 274 292 304 294 290 275 179 177 185 198 215 226 226 220 201 155 132 138 146 161 192 163 96 132 225 220 160 151 185 189 178 175 184 197 207 216 224 227 223 227 236 232 222 236 256 257 241 218 199 184 176 171 167 167 170 171 174 182 193 200 204 209 211 205 185 164 158 158 160 162 166 168 166 165 164 162 163 166 166 161 156
241 237 221 211 218 238 286 314 286 289 306 321 299 261 229 201 214 258 304 297 217 157 156 187 183 121 104 145 170 187 217 203 138 151 196 208 175 162 191 216 220 216 222 232 233 237 242 231 216 232 253 249 228 210 191 174 166 165 166 168 170 172 177 188 201 210 216 216 205 190 176 166 166 169 169 168 166 164 162 165 169 172 175 177 175 167 161
226 230 236 222 216 229 255 271 273 277 279 273 281 310 340 42 324 332 342 345 223 207 209 194 147 127 163 200 196 169 151 164 172 184 205 219 198 172 188 210 215 208 214 232 240 240 240 230 215 216 225 220 205 193 180 168 166 168 169 170 173 177 183 195 209 215 215 206 190 178 166 161 167 170 166 160 156 157 162 174 183 187 186 183 180 174 167